Vertical_Velocity
-1 -1 -0 1 5 -1 0 3 1 1 1 1 2 1 -3 -0 -0 1 -0 1 -1 2 -2 -2 -2 -2 0 -0 2 -1 -0 -1 0 2 4 -1 -2 -1 3 -1 6 6 -3 -0 -1 -1 0 1 1
-1 -0 -1 -1 1 -1 3 1 0 2 -0 0 -1 -0 -1 3 -1 -1 0 0 -3 2 -0 -0 -0 -1 -1 -1 0 1 1 1 -0 -0 3 1 1 0 -3 -1 6 -1 -3 1 -4 -2 -1 1 -2
0 -1 1 -1 -0 -0 1 0 0 3 0 1 -0 -1 0 2 -1 1 2 -2 -3 -1 1 0 7 -3 1 3 -2 -1 2 1 -0 1 0 -1 -1 4 -0 -4 2 -6 -1 -2 -2 2 -1 -3 -2
-0 0 -3 1 0 3 1 -0 0 2 2 -0 -1 -0 -1 1 -1 2 2 2 3 1 0 7 0 5 6 4 5 1 2 -0 4 6 1 -1 4 -1 -0 1 -3 -0 2 -2 2 -1 -1 -2 1
-1 -1 -0 -1 1 0 -0 -0 1 0 1 2 -0 3 1 1 1 1 2 2 2 1 -1 0 -13 -1 9 5 6 9 -7 1 2 3 5 2 0 4 1 -3 -4 -2 -1 3 -1 -1 -2 -2 -0
2 -1 -0 -0 0 -0 0 -1 -0 -0 -0 1 -1 -1 0 -1 1 0 1 1 1 1 0 0 -2 -0 -5 5 13 5 8 6 8 4 -3 1 4 1 -4 -4 1 -2 -1 -3 -3 -3 -3 -0 3
1 -0 0 -0 1 -0 0 0 -0 -1 -0 2 -2 -1 1 1 -0 1 1 -0 0 -0 1 -1 -0 -11 -10 -7 10 8 9 0 3 6 -1 -2 0 4 -2 0 0 2 -1 -6 -3 -1 -1 -0 2
-2 -1 1 0 0 4 2 2 -2 1 3 -1 -2 -1 1 -3 -2 0 1 -1 0 1 -1 -0 -2 -10 -8 -0 5 11 4 10 3 3 -3 1 5 3 -2 1 -1 4 -3 0 -0 -1 1 -3 -0
-1 1 0 0 0 2 1 -0 0 -1 -2 0 -0 0 0 -3 -0 2 -0 -1 -0 -1 -2 -1 -3 -9 -6 -1 -4 3 -5 -11 -4 -1 1 4 2 3 3 -3 -1 -0 -4 -1 0 -2 -1 -0 -2
-1 1 1 1 -0 0 1 -1 1 1 2 2 -1 2 0 -1 0 1 -2 -0 0 0 -1 -0 -4 -4 -3 -3 2 0 -7 -8 -6 -0 3 3 3 4 1 -1 -1 2 -1 -0 1 -2 -1 1 -2
0 1 1 0 -0 1 0 -1 0 -1 1 -3 -5 -1 -1 -3 2 1 1 1 2 -3 1 2 0 4 4 4 1 -3 0 -3 0 -2 -1 2 3 0 -0 -1 -1 -1 -1 0 1 0 -0 -0 -2
2 -0 1 1 -1 0 0 1 0 0 1 -0 -2 2 -2 -1 1 -0 1 1 0 -1 -1 -0 -0 5 5 1 -3 1 -2 0 0 0 1 2 0 -3 1 0 -1 -2 -1 -1 0 2 0 1 4
1 0 -1 -1 1 0 0 0 1 1 -0 2 -2 1 -1 2 3 2 3 1 3 -1 3 1 1 -0 1 -3 -4 -1 -3 1 2 -0 1 -1 1 -1 2 0 2 -1 -1 0 -1 -0 -1 -2 -0
0 -1 -1 -0 1 1 -1 -1 -0 3 -1 1 -1 2 -2 2 -2 -1 1 2 2 -1 -2 -5 1 4 5 -3 3 2 1 1 1 -1 2 -0 2 1 1 1 1 0 -2 2 0 -1 -0 1 -2
-1 0 0 -0 -2 -0 2 2 0 3 2 1 -1 1 -1 1 -2 -2 3 3 1 2 -0 3 1 -0 -1 3 1 2 4 2 -0 1 3 0 2 1 3 0 -1 0 -1 -1 -0 -1 3 2 -2
1 1 -0 3 -0 -1 1 -4 -4 0 2 -0 1 -0 -0 -1 0 -3 1 3 -2 -1 3 -4 0 1 1 5 -1 4 -2 -2 -3 2 2 2 -0 1 2 1 -0 0 -2 -2 1 -0 0 -2 -1
0 1 0 -1 -1 0 -1 -2 -14 0 2 1 -0 -1 -1 -0 -2 -1 -1 1 1 -1 0 3 -1 4 2 -0 0 0 -2 -3 0 2 0 1 -1 0 -0 1 1 0 -3 -2 -2 -1 -0 -1 -2
0 -0 -0 -0 -0 3 1 -4 -2 -2 1 -1 -1 0 -2 -0 -4 -1 -2 2 -1 -0 5 -0 1 1 0 -3 1 4 -1 -4 -1 -0 0 1 -0 -1 -2 -0 1 -2 -0 1 -3 -0 1 -2 -2
1 1 1 -1 -1 3 -3 -1 -4 -2 4 1 0 -1 -2 -4 7 -1 -2 4 -1 -1 -1 0 1 0 -2 -1 1 3 -3 -0 5 1 -0 -0 -2 1 -2 -1 2 -2 0 -0 -1 -1 1 -2 -1
1 1 -3 -0 1 6 0 -6 -4 -0 -7 -6 -2 -1 -4 2 -2 -1 -1 -2 -0 -1 -0 1 0 -7 0 -2 3 -2 -2 -4 -3 0 1 2 -0 -2 -3 -2 -2 1 -2 1 -0 -2 0 -2 -2
-2 2 -1 3 1 2 2 -3 2 -3 4 4 0 -2 3 -3 -1 -3 -1 -5 1 -4 -2 -4 -3 7 -3 -0 1 0 3 0 -1 -3 3 2 1 -1 -0 -2 -2 1 -1 3 2 -1 4 -3 0
1 0 1 0 2 2 3 -4 -1 -0 -1 2 -1 -1 -3 -2 -1 3 -3 -3 -4 -6 1 2 1 -5 3 -0 -3 0 -1 4 3 2 -2 3 1 0 -1 -3 -2 -4 -6 -3 -1 -3 1 -4 1
2 -0 -2 -1 0 3 2 6 -5 1 1 -3 -3 -2 -2 -4 -2 -3 -6 -4 1 1 -6 0 2 1 -0 1 -2 -0 -2 2 -1 1 -1 -2 -0 -1 -1 0 1 -3 -4 -2 -1 -2 -3 -1 1
-1 -2 -1 -0 0 3 1 5 -5 -1 -3 -1 -1 -1 -3 -2 -2 -1 3 2 -1 2 -2 -0 -3 1 1 1 2 1 -3 -1 1 -0 1 -2 -3 -1 -0 0 1 1 1 -1 -0 -2 -1 -3 1
3 3 1 3 4 -0 0 4 -10 -1 -2 -1 -2 -3 -2 1 1 0 -6 -5 0 -4 -3 -0 -1 -4 -1 2 -0 -2 1 -1 -2 3 2 4 1 -3 -3 0 3 -0 -1 -2 -3 -0 -1 -1 2
-3 2 1 0 1 1 1 -2 -5 -1 -1 -1 -1 1 1 3 -0 -2 -3 -3 -4 -2 -2 1 -2 0 -3 2 0 1 2 1 -3 -1 0 4 0 2 2 -5 -1 0 1 1 -2 -2 -3 -5 2
2 3 -0 1 1 4 -0 -5 0 -0 -0 -0 1 -0 -1 0 0 -5 -0 -1 2 -0 -3 -4 -3 1 2 -2 -1 -0 -1 -3 -4 2 -1 -2 2 5 4 1 -2 0 3 0 -4 -1 -2 3 3
0 -2 7 2 2 -0 -1 -1 -5 -1 1 0 1 0 0 -1 -0 -0 -2 -4 2 2 3 4 -3 -4 6 4 3 2 2 0 -2 1 -1 -3 -2 -1 1 5 3 2 0 0 0 -4 -5 1 -1
5 2 2 3 4 2 0 -5 -3 -2 -2 -2 -1 -2 -0 -1 -2 -1 -1 1 2 1 -2 -0 -1 -0 0 1 3 1 0 2 0 -1 1 -1 0 -4 -4 1 4 7 8 5 -1 3 1 -3 -1
-1 -2 -1 6 -2 1 2 -8 -1 -1 -1 0 -1 -1 -3 -1 -0 2 1 1 -2 2 -2 -0 0 -2 0 3 4 0 3 1 -1 -1 3 5 -3 5 -4 -2 -2 -0 5 5 6 4 1 1 -2
Height
1522 1522 1521 1522 1526 1521 1525 1524 1519 1522 1524 1528 1528 1528 1529 1532 1530 1539 1535 1538 1542 1545 1548 1550 1553 1554 1556 1557 1558 1560 1561 1562 1564 1565 1566 1566 1567 1568 1570 1571 1575 1574 1575 1576 1576 1578 1579 1580 1580
1522 1522 1522 1521 1524 1527 1527 1520 1522 1524 1527 1528 1529 1530 1531 1533 1534 1534 1536 1539 1541 1546 1549 1550 1553 1555 1557 1558 1560 1561 1562 1563 1564 1565 1566 1567 1568 1570 1571 1573 1573 1576 1577 1577 1578 1579 1580 1581 1582
1522 1522 1523 1521 1524 1531 1527 1521 1522 1525 1528 1528 1530 1532 1533 1535 1534 1536 1536 1539 1539 1546 1549 1551 1554 1555 1557 1559 1560 1562 1563 1564 1564 1565 1566 1567 1570 1572 1573 1574 1575 1576 1577 1579 1579 1580 1581 1582 1582
1522 1523 1524 1522 1525 1523 1523 1521 1524 1525 1528 1528 1529 1532 1535 1535 1536 1537 1539 1541 1545 1548 1550 1552 1555 1558 1557 1559 1562 1562 1563 1563 1564 1566 1567 1568 1572 1572 1574 1575 1577 1577 1579 1581 1581 1582 1582 1583 1584
1523 1523 1524 1526 1526 1523 1521 1522 1524 1524 1527 1529 1530 1533 1536 1537 1537 1539 1541 1544 1546 1549 1551 1553 1555 1557 1559 1562 1563 1564 1562 1565 1565 1567 1569 1569 1571 1575 1575 1577 1577 1579 1580 1581 1582 1582 1583 1584 1585
1524 1525 1527 1528 1525 1522 1522 1522 1524 1525 1528 1530 1531 1533 1537 1537 1538 1540 1543 1546 1548 1550 1551 1553 1555 1557 1558 1560 1563 1561 1564 1566 1566 1568 1569 1570 1573 1575 1576 1578 1578 1580 1581 1582 1583 1583 1585 1586 1586
1525 1525 1528 1529 1528 1522 1522 1523 1523 1525 1527 1529 1531 1534 1537 1537 1538 1541 1544 1546 1548 1550 1552 1554 1556 1556 1558 1558 1560 1561 1565 1566 1568 1569 1570 1572 1573 1576 1577 1579 1580 1581 1582 1582 1583 1584 1585 1586 1587
1526 1527 1529 1528 1527 1527 1522 1522 1524 1524 1527 1529 1531 1532 1536 1536 1539 1542 1544 1546 1548 1550 1551 1553 1555 1557 1555 1556 1560 1562 1565 1567 1569 1571 1572 1573 1575 1577 1578 1580 1581 1582 1582 1583 1584 1585 1586 1587 1587
1526 1527 1529 1529 1528 1526 1524 1523 1525 1526 1526 1529 1531 1531 1533 1535 1538 1542 1544 1546 1548 1549 1551 1552 1554 1555 1555 1558 1558 1563 1565 1565 1570 1572 1573 1574 1577 1577 1579 1580 1582 1582 1583 1584 1586 1586 1587 1588 1589
1526 1528 1528 1527 1525 1525 1525 1524 1525 1527 1527 1528 1530 1530 1533 1536 1538 1541 1543 1546 1548 1549 1550 1552 1553 1555 1556 1558 1562 1564 1567 1570 1570 1573 1575 1576 1577 1579 1581 1582 1582 1583 1585 1586 1587 1588 1588 1589 1590
1528 1528 1527 1527 1525 1526 1525 1524 1524 1524 1524 1526 1528 1530 1533 1536 1539 1541 1543 1546 1548 1548 1550 1552 1554 1556 1558 1560 1562 1565 1568 1570 1572 1574 1575 1576 1578 1580 1581 1582 1583 1585 1586 1587 1588 1589 1589 1590 1590
1528 1528 1527 1527 1526 1525 1525 1525 1523 1524 1526 1525 1526 1530 1533 1536 1539 1541 1543 1545 1545 1546 1549 1551 1554 1556 1558 1560 1563 1566 1568 1571 1573 1574 1576 1577 1579 1581 1582 1583 1585 1586 1587 1588 1588 1589 1590 1590 1589
1526 1528 1529 1528 1526 1526 1525 1524 1525 1525 1526 1526 1527 1531 1534 1537 1539 1541 1543 1544 1544 1546 1547 1550 1553 1556 1558 1560 1563 1566 1570 1572 1573 1574 1576 1578 1580 1581 1582 1584 1585 1587 1588 1588 1589 1589 1590 1589 1589
1528 1529 1529 1528 1527 1526 1525 1524 1524 1525 1527 1528 1529 1531 1535 1537 1539 1541 1542 1543 1543 1545 1548 1551 1554 1556 1559 1561 1564 1567 1570 1572 1573 1575 1577 1578 1580 1581 1583 1584 1586 1588 1589 1589 1589 1589 1589 1588 1588
1528 1527 1527 1528 1527 1527 1526 1525 1523 1525 1527 1528 1530 1532 1535 1537 1539 1541 1543 1543 1544 1546 1549 1551 1554 1557 1560 1563 1566 1568 1570 1572 1574 1575 1577 1579 1580 1581 1583 1584 1586 1587 1589 1589 1590 1589 1589 1589 1588
1527 1527 1527 1527 1528 1527 1526 1532 1523 1525 1527 1528 1530 1532 1534 1537 1539 1541 1543 1544 1544 1546 1548 1551 1554 1557 1560 1563 1564 1567 1570 1571 1574 1576 1577 1578 1579 1581 1583 1585 1586 1588 1589 1590 1590 1589 1589 1589 1588
1529 1530 1529 1526 1527 1528 1528 1534 1521 1525 1527 1528 1529 1531 1534 1537 1538 1540 1543 1545 1545 1547 1549 1552 1555 1557 1559 1561 1565 1567 1569 1571 1573 1575 1577 1579 1579 1580 1582 1584 1585 1587 1589 1590 1590 1590 1589 1589 1588
1528 1527 1526 1525 1524 1528 1529 1526 1522 1523 1526 1527 1528 1530 1532 1534 1536 1539 1542 1545 1547 1548 1550 1552 1555 1557 1560 1562 1564 1566 1568 1570 1573 1575 1577 1578 1579 1580 1582 1583 1585 1587 1589 1590 1590 1589 1589 1588 1587
1521 1524 1523 1520 1519 1523 1524 1522 1519 1519 1522 1524 1525 1527 1528 1530 1535 1537 1540 1543 1546 1549 1551 1553 1555 1557 1560 1562 1564 1565 1567 1570 1572 1575 1576 1577 1579 1580 1582 1583 1585 1587 1588 1589 1589 1589 1588 1587 1586
1520 1521 1520 1518 1518 1521 1519 1518 1513 1513 1513 1516 1519 1521 1523 1527 1531 1534 1537 1540 1543 1546 1549 1551 1553 1556 1559 1562 1564 1566 1568 1570 1572 1575 1576 1576 1578 1579 1581 1583 1584 1586 1587 1588 1587 1587 1587 1586 1586
1513 1517 1516 1517 1520 1519 1519 1511 1506 1504 1508 1511 1513 1516 1520 1522 1525 1529 1533 1535 1540 1543 1545 1549 1552 1554 1557 1560 1563 1565 1567 1570 1572 1574 1575 1576 1577 1579 1580 1582 1583 1584 1585 1586 1586 1586 1586 1585 1585
1516 1510 1512 1516 1518 1523 1517 1519 1501 1501 1501 1504 1506 1509 1512 1516 1519 1525 1528 1532 1534 1539 1543 1546 1550 1553 1556 1559 1561 1564 1567 1568 1570 1573 1575 1576 1577 1578 1579 1580 1581 1582 1584 1584 1585 1585 1584 1584 1585
1512 1508 1510 1515 1520 1522 1520 1526 1493 1500 1499 1495 1497 1501 1505 1510 1513 1517 1521 1526 1531 1536 1540 1543 1547 1550 1553 1556 1559 1562 1564 1566 1568 1571 1573 1575 1576 1577 1578 1579 1580 1581 1581 1582 1583 1583 1583 1584 1584
1510 1511 1514 1519 1522 1527 1519 1518 1492 1490 1487 1486 1489 1492 1497 1502 1507 1512 1517 1523 1527 1532 1536 1539 1543 1546 1549 1553 1556 1558 1561 1563 1566 1568 1571 1573 1575 1576 1577 1577 1578 1578 1579 1580 1580 1581 1581 1582 1583
1509 1509 1520 1525 1526 1522 1520 1521 1489 1482 1481 1482 1482 1485 1488 1494 1501 1506 1511 1516 1521 1526 1530 1535 1538 1542 1545 1548 1552 1555 1557 1561 1563 1566 1568 1570 1572 1573 1575 1575 1576 1576 1576 1577 1578 1578 1578 1580 1580
1506 1504 1512 1531 1524 1515 1519 1511 1484 1477 1478 1478 1477 1480 1484 1489 1495 1500 1504 1510 1516 1520 1525 1530 1534 1537 1541 1544 1548 1551 1554 1557 1560 1562 1565 1567 1569 1570 1571 1573 1574 1574 1574 1574 1574 1576 1576 1577 1577
1506 1508 1495 1508 1521 1515 1505 1491 1476 1476 1476 1476 1476 1478 1480 1485 1490 1495 1499 1505 1511 1515 1520 1525 1529 1534 1537 1540 1544 1548 1551 1553 1556 1559 1561 1563 1565 1567 1568 1570 1571 1572 1572 1572 1571 1572 1573 1574 1575
1491 1490 1505 1505 1521 1522 1506 1503 1486 1473 1474 1477 1477 1477 1480 1483 1487 1492 1496 1501 1506 1511 1516 1521 1525 1529 1533 1536 1539 1543 1546 1549 1552 1554 1556 1559 1561 1564 1565 1566 1568 1569 1569 1569 1568 1569 1570 1572 1572
1493 1495 1496 1495 1497 1500 1507 1494 1469 1470 1470 1472 1475 1477 1479 1481 1483 1488 1493 1498 1502 1507 1511 1516 1520 1524 1528 1531 1535 1538 1541 1544 1547 1549 1552 1554 1557 1559 1561 1562 1563 1563 1564 1564 1565 1565 1566 1568 1569
1479 1479 1482 1494 1501 1500 1495 1489 1466 1467 1469 1470 1471 1474 1477 1480 1483 1486 1490 1494 1498 1501 1506 1510 1515 1519 1523 1526 1530 1533 1536 1539 1541 1543 1546 1548 1550 1553 1555 1557 1559 1559 1559 1560 1562 1563 1563 1564 1566